Date,TemperatureHighF,TemperatureAvgF,TemperatureLowF,DewpointHighF,DewpointAvgF,DewpointLowF,HumidityHigh,HumidityAvg,HumidityLow,PressureMaxIn,PressureMinIn,WindSpeedMaxMPH,WindSpeedAvgMPH,GustSpeedMaxMPH,PrecipitationSumIn
2013-1-1,13.1,3.1,-10.0,9.0,-4.4,-99.9,85,76,64,30.26,29.97,14,-19,0,0.00
2013-1-2,19.1,16.4,12.4,17.0,11.7,-99.9,91,87,85,30.00,29.89,9,-20,0,0.00
2013-1-3,21.1,14.9,11.1,18.0,0.8,-99.9,90,69,45,30.14,29.86,18,-64,0,0.00
2013-1-4,33.2,20.5,10.4,19.0,13.7,7.0,86,75,57,30.09,29.86,15,5,0,0.00
2013-1-5,28.1,18.4,4.8,20.0,12.9,-1.0,90,79,65,30.07,29.82,10,3,0,0.00
2013-1-6,22.5,16.5,12.9,16.0,9.2,5.0,90,74,53,30.14,29.94,13,4,0,0.00
2013-1-7,38.8,26.1,14.0,23.0,17.7,6.0,83,71,53,29.93,29.68,20,9,0,0.00
2013-1-8,31.5,23.0,7.9,27.0,18.5,3.0,90,83,76,29.94,29.65,14,4,0,0.00
2013-1-9,31.0,27.6,20.6,26.0,19.6,14.0,83,72,61,30.26,29.67,41,10,0,0.00
2013-1-10,43.1,32.7,21.4,31.0,19.5,14.0,96,61,36,30.26,29.67,13,5,0,0.24
2013-1-11,36.9,34.1,32.1,37.0,34.2,31.0,100,100,96,29.66,29.25,7,2,0,0.34
2013-1-12,38.3,19.9,5.2,38.0,15.5,-3.0,100,83,68,30.02,29.22,19,9,0,0.04
2013-1-13,7.9,4.0,0.1,1.0,-2.2,-5.0,79,75,69,30.15,30.00,13,5,0,0.00
2013-1-14,9.7,4.4,1.8,0.0,-15.5,-99.9,79,62,58,30.33,30.15,14,-129,0,0.00
2013-1-15,22.4,13.5,4.8,12.0,5.2,0.0,83,70,53,30.24,29.64,23,5,0,0.00
2013-1-16,25.1,16.6,-0.6,23.0,8.0,-12.0,92,70,49,30.21,29.47,22,10,0,0.02
2013-1-17,7.9,0.0,-5.4,-4.0,-8.7,-13.0,77,67,57,30.37,30.21,13,4,0,0.00
2013-1-18,18.4,12.8,0.1,16.0,8.8,-6.0,89,84,70,30.31,29.73,13,2,0,0.17
2013-1-19,27.3,14.0,-2.4,23.0,4.8,-99.9,92,77,64,30.09,29.52,28,-36,0,0.00
2013-1-20,-0.6,-4.7,-11.0,-11.0,-28.2,-99.9,74,57,58,30.34,30.11,18,-164,0,0.00
2013-1-21,-10.5,-15.1,-19.9,-21.0,-26.3,-99.9,66,60,50,30.30,30.20,18,-6,0,0.00
2013-1-22,-2.0,-11.7,-21.4,-14.0,-21.4,-29.0,70,62,51,30.37,30.22,13,5,0,0.00
2013-1-23,4.5,-4.8,-15.1,-3.0,-14.3,-24.0,77,64,49,30.65,30.10,26,8,0,0.00
2013-1-24,3.4,-8.1,-23.6,-2.0,-16.9,-32.0,78,66,54,30.73,30.19,12,3,0,0.00
2013-1-25,13.3,7.6,-0.6,6.0,1.2,-6.0,82,75,63,30.27,29.88,16,6,0,0.07
2013-1-26,16.4,4.8,-13.0,7.0,-3.1,-20.0,81,70,62,30.36,30.15,10,3,0,0.00
2013-1-27,28.2,20.6,8.3,27.0,13.6,2.0,94,75,61,30.15,29.80,10,4,0,0.04
2013-1-28,29.3,27.3,22.4,29.0,25.9,21.0,100,94,89,29.84,29.63,6,1,0,0.02
2013-1-29,31.6,27.9,20.5,30.0,25.8,16.0,100,92,79,29.71,29.46,19,6,0,0.01
2013-1-30,20.3,11.7,4.1,17.0,5.3,-3.0,86,75,64,29.70,29.58,23,10,0,0.00
2013-1-31,4.3,0.7,-10.5,-3.0,-10.0,-99.9,76,66,59,30.17,29.65,22,-12,0,0.00
2013-2-1,-2.6,-4.2,-21.1,-12.0,-47.3,-99.9,67,36,46,30.27,30.11,12,-350,0,0.00
2013-2-2,9.0,1.5,-14.6,-3.0,-47.8,-99.9,74,32,42,30.18,29.80,13,-414,0,0.00
2013-2-3,7.7,2.5,-3.5,-1.0,-7.8,-12.0,76,63,45,30.03,29.90,20,6,0,0.00
2013-2-4,8.8,-1.3,-16.4,2.0,-12.4,-24.0,81,61,42,30.08,29.71,13,3,0,0.01
2013-2-5,18.1,11.8,7.0,8.0,3.2,-3.0,86,70,49,30.04,29.60,16,5,0,0.12
2013-2-6,21.3,15.0,8.1,19.0,9.0,-1.0,92,77,56,30.08,29.98,13,3,0,0.08
2013-2-7,22.2,20.3,13.8,20.0,17.5,10.0,93,88,84,30.28,30.07,14,5,0,0.01
2013-2-8,19.7,11.3,-2.0,14.0,6.5,-8.0,87,81,72,30.38,30.22,7,2,0,0.00
2013-2-9,26.1,21.1,11.4,24.0,17.5,7.0,95,86,76,30.23,29.94,7,2,0,0.00
2013-2-10,29.7,25.8,22.9,30.0,24.8,22.0,99,96,91,29.94,29.30,24,8,0,0.30
2013-2-11,29.7,22.4,17.2,30.0,18.7,13.0,99,85,78,29.90,29.30,26,10,0,0.01
2013-2-12,29.4,20.6,9.2,20.0,14.9,6.0,87,79,66,29.92,29.65,15,6,0,0.00
2013-2-13,35.9,27.4,18.0,27.0,21.4,15.0,89,78,68,29.65,29.53,10,4,0,0.00
2013-2-14,24.4,19.0,10.0,21.0,9.3,-1.0,91,68,41,30.09,29.61,17,6,0,0.00
2013-2-15,13.8,6.1,-1.2,1.0,-2.9,-7.0,80,67,49,30.25,30.09,16,6,0,0.00
2013-2-16,15.6,2.7,-8.2,0.0,-7.7,-15.0,78,64,43,30.21,30.13,4,1,0,0.00
2013-2-17,23.9,11.6,-9.3,14.0,2.9,-17.0,79,68,60,30.13,29.65,16,4,0,0.00
2013-2-18,25.7,20.6,6.1,24.0,15.4,-1.0,93,80,67,29.69,29.46,21,7,0,0.00
2013-2-19,5.8,0.2,-6.8,-1.0,-10.0,-16.0,72,62,50,30.35,29.69,28,15,0,0.00
2013-2-20,19.2,2.4,-9.6,-7.0,-10.9,-16.0,73,57,28,30.50,30.35,11,4,0,0.00
2013-2-21,22.7,10.8,-8.6,21.0,5.5,-18.0,93,79,58,30.50,30.15,16,5,0,0.00
2013-2-22,26.9,24.5,21.8,24.0,22.5,20.0,95,91,85,30.14,29.80,20,7,0,0.15
2013-2-23,30.9,26.3,20.0,23.0,20.6,18.0,91,80,70,29.86,29.75,12,3,0,0.00
2013-2-24,38.6,25.3,8.8,22.0,17.2,4.0,89,73,48,30.04,29.86,6,2,0,0.00
2013-2-25,36.6,24.1,13.3,21.0,15.8,9.0,85,72,53,30.06,29.98,10,2,0,0.00
2013-2-26,36.5,22.0,3.5,25.0,14.2,-2.0,86,73,60,30.06,29.94,10,3,0,0.00
2013-2-27,33.8,26.4,15.6,24.0,19.8,13.0,90,77,60,30.02,29.90,16,5,0,0.00
2013-2-28,29.4,24.1,18.4,19.0,15.6,8.0,81,71,52,30.26,30.02,15,6,0,0.00
2013-3-1,22.4,15.9,1.7,10.0,6.4,-5.0,79,67,55,30.40,30.25,14,4,0,0.00
2013-3-2,29.3,11.2,-9.1,11.0,-0.3,-16.0,79,62,27,30.39,30.16,7,1,0,0.00
2013-3-3,27.3,14.9,-2.2,15.0,1.5,-10.0,85,59,23,30.17,30.04,15,4,0,0.00
2013-3-4,27.6,23.4,20.3,23.0,16.7,10.0,91,76,51,30.05,30.00,19,8,0,0.03
2013-3-5,24.5,22.2,17.2,22.0,19.3,14.0,92,88,82,30.26,30.02,21,6,0,0.29
2013-3-6,25.1,15.1,3.0,15.0,9.3,-2.0,87,78,61,30.36,30.26,14,4,0,0.00
2013-3-7,27.9,13.1,-7.7,19.0,6.1,-15.0,90,74,58,30.42,30.30,10,3,0,0.00
2013-3-8,38.6,25.4,13.6,25.0,18.9,10.0,92,77,56,30.32,30.09,11,2,0,0.00
2013-3-9,31.9,30.0,26.0,32.0,28.7,22.0,100,95,84,30.09,29.70,13,3,0,0.49
2013-3-10,31.6,28.4,23.0,32.0,25.2,17.0,100,87,75,29.97,29.72,16,6,0,0.00
2013-3-11,27.6,22.7,20.2,19.0,16.8,14.0,85,78,63,29.93,29.69,12,5,0,0.00
2013-3-12,21.8,18.6,14.4,16.0,11.5,4.0,88,74,60,30.11,29.73,22,8,0,0.00
2013-3-13,33.4,18.9,3.4,10.0,4.2,-3.0,78,55,32,30.29,30.11,13,4,0,0.00
2013-3-14,39.6,23.6,3.0,27.0,15.0,-3.0,79,70,56,30.19,29.91,13,3,0,0.00
2013-3-15,32.1,24.3,17.0,27.0,15.9,5.0,86,71,49,29.97,29.88,14,6,0,0.06
2013-3-16,19.2,12.7,2.8,14.0,3.6,-7.0,87,68,50,30.24,29.96,18,6,0,0.03
2013-3-17,22.4,6.7,-14.6,12.0,-4.1,-23.0,75,62,47,30.30,29.89,13,4,0,0.00
2013-3-18,26.4,20.6,15.4,24.0,15.8,8.0,92,82,59,29.89,29.44,18,8,0,0.18
2013-3-19,21.6,13.5,5.8,10.0,2.8,-5.0,85,64,45,30.04,29.54,28,14,0,0.00
2013-3-20,17.2,9.4,2.2,3.0,-2.1,-6.0,71,61,49,30.11,30.02,18,8,0,0.00
2013-3-21,29.4,15.2,-2.6,10.0,4.0,-9.0,82,63,43,30.09,29.99,12,4,0,0.00
2013-3-22,33.4,19.0,2.2,19.0,10.5,-4.0,81,70,54,30.07,30.00,7,2,0,0.00
2013-3-23,36.5,22.7,7.2,22.0,14.0,1.0,85,70,48,30.14,30.06,12,2,0,0.00
2013-3-24,29.4,26.4,21.6,22.0,19.6,14.0,87,76,62,30.08,29.99,14,3,0,0.00
2013-3-25,35.8,23.8,13.5,19.0,14.0,9.0,82,67,46,30.14,30.03,13,4,0,0.00
2013-3-26,37.9,31.9,26.9,25.0,19.4,14.0,76,61,38,30.21,30.14,11,2,0,0.00
2013-3-27,43.1,33.6,23.6,24.0,17.5,12.0,77,55,29,30.26,30.21,6,1,0,0.00
2013-3-28,45.8,31.9,13.1,19.0,14.0,8.0,81,52,23,30.30,30.21,7,2,0,0.00
2013-3-29,50.2,35.7,17.0,32.0,22.0,12.0,84,61,30,30.23,29.97,14,2,0,0.00
2013-3-30,52.8,42.1,36.6,39.0,33.4,24.0,100,75,34,29.96,29.68,14,4,0,0.50
2013-3-31,37.5,29.7,21.1,29.0,17.4,5.0,87,62,40,29.98,29.60,29,10,0,0.01
2013-4-1,31.9,22.7,12.1,9.0,5.9,1.0,73,50,28,30.14,29.98,18,9,0,0.00
2013-4-2,34.0,23.4,13.3,10.0,6.4,2.0,80,52,27,30.31,30.14,16,6,0,0.00
2013-4-3,43.5,28.2,6.7,28.0,10.5,0.0,78,51,25,30.35,29.88,18,5,0,0.00
2013-4-4,40.9,36.7,27.5,31.0,21.9,12.0,83,58,35,30.11,29.83,17,8,0,0.00
2013-4-5,34.1,27.4,13.6,24.0,14.6,9.0,89,60,43,30.23,29.99,11,4,0,0.00
2013-4-6,32.5,30.6,27.6,32.0,29.7,25.0,100,96,90,29.98,29.55,16,5,0,0.53
2013-4-7,36.2,33.6,31.0,32.0,30.1,29.0,97,87,78,29.85,29.63,9,2,0,0.07
2013-4-8,38.6,34.4,31.0,35.0,32.3,29.0,100,92,81,30.01,29.74,7,2,0,0.26
2013-4-9,40.9,33.7,29.0,31.0,24.2,20.0,91,69,45,30.17,30.00,16,6,0,0.00
2013-4-10,36.8,31.4,24.7,23.0,14.9,9.0,82,53,34,30.20,30.03,23,6,0,0.00
2013-4-11,30.3,27.3,25.6,27.0,23.3,20.0,96,85,67,30.04,29.78,30,16,0,0.22
2013-4-12,29.4,26.3,22.7,27.0,24.5,21.0,96,93,85,29.81,29.70,23,9,0,0.26
2013-4-13,31.8,25.2,17.5,26.0,20.6,14.0,91,83,70,29.95,29.77,9,3,0,0.01
2013-4-14,36.0,25.0,9.0,31.0,19.3,4.0,100,81,57,29.96,29.58,26,9,0,0.26
2013-4-15,34.0,32.1,30.3,34.0,31.9,30.0,100,99,96,29.78,29.45,24,4,0,0.15
2013-4-16,40.5,35.0,31.3,33.0,27.0,22.0,100,75,50,30.30,29.79,16,6,0,0.00
2013-4-17,34.3,31.6,28.2,29.0,27.3,26.0,94,84,74,30.33,30.02,18,6,0,0.06
2013-4-18,33.1,30.0,27.8,31.0,28.8,26.0,100,94,83,30.01,29.45,16,7,0,0.37
2013-4-19,30.7,26.9,20.8,29.0,19.5,5.0,100,76,43,29.90,29.41,30,12,0,0.14
2013-4-20,37.8,24.2,4.7,15.0,6.9,-1.0,78,51,25,30.28,29.90,10,3,0,0.00
2013-4-21,36.9,30.7,19.5,36.0,24.8,12.0,100,79,61,30.29,29.99,18,5,0,0.19
2013-4-22,38.6,33.3,30.0,36.0,27.7,19.0,100,82,46,30.17,30.02,14,5,0,0.22
2013-4-23,41.8,34.1,27.8,29.0,20.0,12.0,97,62,30,30.11,29.95,17,7,0,0.09
2013-4-24,42.5,31.8,19.5,33.0,22.0,14.0,90,69,41,29.95,29.82,13,3,0,0.02
2013-4-25,45.4,34.5,25.6,28.0,23.8,17.0,93,68,34,30.09,29.86,15,5,0,0.00
2013-4-26,63.1,47.5,35.9,37.0,31.5,23.0,79,56,32,30.05,29.91,12,3,0,0.00
2013-4-27,67.9,49.9,30.3,34.0,30.6,27.0,88,54,25,30.05,29.76,14,3,0,0.00
2013-4-28,69.6,55.2,41.6,47.0,42.8,34.0,90,65,42,29.77,29.56,18,5,0,0.00
2013-4-29,62.6,48.9,37.0,44.0,31.8,23.0,97,57,24,29.74,29.54,11,4,0,0.00
2013-4-30,66.8,52.2,38.8,54.0,38.1,20.0,100,67,21,29.78,29.32,22,8,0,0.19
2013-5-1,49.5,37.9,32.4,35.0,25.2,21.0,73,61,49,30.45,29.78,17,8,0,0.00
2013-5-2,42.1,33.8,28.7,25.0,22.5,21.0,84,64,46,30.51,30.41,16,6,0,0.00
2013-5-3,34.3,29.9,25.4,29.0,26.2,22.0,95,86,63,30.41,30.20,11,3,0,0.09
2013-5-4,36.0,32.8,29.4,35.0,32.0,28.0,100,96,93,30.21,30.16,13,3,0,0.05
2013-5-5,49.4,38.8,33.4,41.0,36.2,31.0,100,91,71,30.19,30.07,10,2,0,0.02
2013-5-6,69.6,50.4,29.4,47.0,39.5,29.0,100,71,42,30.08,29.93,9,2,0,0.00
2013-5-7,74.0,55.7,35.0,45.0,40.3,34.0,97,62,28,29.98,29.86,12,3,0,0.00
2013-5-8,72.8,56.2,37.6,57.0,44.3,35.0,93,69,34,29.93,29.88,9,2,0,0.02
2013-5-9,53.9,43.3,32.9,47.0,34.9,26.0,86,73,53,30.15,29.91,20,7,0,0.00
2013-5-10,48.3,38.7,30.7,27.0,22.7,13.0,80,54,27,30.15,29.82,19,6,0,0.00
2013-5-11,43.2,37.8,33.4,35.0,26.6,17.0,83,65,48,30.09,29.84,30,14,0,0.01
2013-5-12,50.8,38.5,26.6,22.0,17.7,12.0,76,48,24,30.12,30.02,19,6,0,0.00
2013-5-13,54.2,42.7,26.1,34.0,24.3,17.0,81,51,27,30.07,29.60,14,4,0,0.01
2013-5-14,74.4,51.2,31.8,49.0,37.5,28.0,93,63,24,29.72,29.33,25,6,0,0.06
2013-5-15,77.2,62.8,49.4,47.0,40.3,31.0,78,49,20,29.72,29.48,22,9,0,0.00
2013-5-16,66.4,55.0,41.8,42.0,34.4,28.0,82,50,25,29.93,29.72,14,5,0,0.00
2013-5-17,59.9,51.6,44.9,36.0,34.7,32.0,68,54,39,30.02,29.93,20,8,0,0.00
2013-5-18,53.3,47.6,41.1,53.0,46.3,35.0,100,95,61,29.95,29.79,11,4,0,0.43
2013-5-19,58.6,51.4,44.8,57.0,50.8,45.0,100,98,89,29.80,29.62,31,8,0,0.37
2013-5-20,49.9,45.9,43.8,50.0,45.9,44.0,100,100,97,29.66,29.51,28,12,0,0.86
2013-5-21,49.2,45.3,42.6,46.0,44.4,43.0,100,96,86,29.75,29.58,20,9,0,1.13
2013-5-22,54.2,46.8,43.2,46.0,42.2,36.0,100,86,55,29.98,29.73,21,7,0,0.52
2013-5-23,53.5,45.2,34.0,37.0,31.0,24.0,95,61,34,30.30,30.02,14,4,0,0.00
2013-5-24,65.0,48.8,29.3,36.0,30.0,25.0,100,54,27,30.33,30.16,11,4,0,0.00
2013-5-25,57.8,49.4,39.9,39.0,35.0,31.0,81,59,45,30.24,30.17,11,4,0,0.03
2013-5-26,65.2,52.4,38.8,38.0,32.2,26.0,75,48,32,30.23,30.05,18,6,0,0.00
2013-5-27,62.7,52.5,38.8,39.0,34.8,29.0,80,53,35,30.05,29.81,18,5,0,0.00
2013-5-28,62.4,53.5,44.9,46.0,40.6,35.0,72,62,50,29.81,29.64,12,4,0,0.00
2013-5-29,74.9,59.8,42.8,61.0,51.6,38.0,98,76,49,29.71,29.59,11,3,0,0.57
2013-5-30,69.3,60.9,54.7,64.0,58.2,54.0,100,91,72,29.62,29.42,12,4,0,0.10
2013-5-31,72.5,59.3,47.6,62.0,55.6,46.0,100,89,56,29.48,29.40,25,4,0,0.66
2013-6-1,58.9,50.8,45.1,56.0,48.8,40.0,100,93,81,29.86,29.47,17,4,0,0.06
2013-6-2,64.2,51.6,41.9,42.0,37.4,34.0,89,62,32,29.98,29.87,16,6,0,0.00
2013-6-3,62.3,50.8,34.6,43.0,34.6,29.0,100,59,32,30.01,29.94,11,2,0,0.00
2013-6-4,61.6,52.9,48.2,41.0,32.9,23.0,71,48,30,30.07,30.00,12,4,0,0.00
2013-6-5,49.1,46.5,43.8,49.0,43.9,32.0,100,91,59,30.04,29.97,14,4,0,0.40
2013-6-6,58.3,48.8,40.9,49.0,44.6,39.0,100,87,55,30.00,29.95,15,5,0,0.04
2013-6-7,66.9,52.4,40.9,45.0,39.6,30.0,99,67,29,30.00,29.86,5,1,0,0.00
2013-6-8,70.1,59.0,43.3,48.0,43.9,37.0,85,59,42,29.87,29.82,12,4,0,0.00
2013-6-9,57.2,52.6,45.7,54.0,48.1,39.0,98,85,65,29.89,29.76,15,4,0,0.54
2013-6-10,69.6,58.4,47.0,59.0,54.6,47.0,100,88,67,29.78,29.70,12,2,0,0.00
2013-6-11,81.1,67.6,53.8,62.0,51.7,41.0,100,64,25,29.78,29.70,11,3,0,0.00
2013-6-12,81.2,65.8,47.0,59.0,48.6,45.0,100,60,29,29.81,29.71,14,3,0,0.00
2013-6-13,73.5,61.5,49.2,54.0,48.3,40.0,97,65,34,30.03,29.82,13,4,0,0.00
2013-6-14,69.8,57.6,45.1,51.0,46.0,40.0,96,68,49,30.04,29.83,12,4,0,0.00
2013-6-15,74.9,60.8,49.9,61.0,50.5,37.0,85,69,50,29.83,29.70,10,2,0,0.00
2013-6-16,79.8,64.3,55.1,66.0,52.6,47.0,100,69,35,29.76,29.68,21,5,0,0.76
2013-6-17,58.9,51.6,41.5,55.0,45.3,36.0,100,81,56,30.03,29.73,12,5,0,0.00
2013-6-18,69.3,53.8,35.6,44.0,36.8,32.0,100,60,27,30.08,29.96,12,3,0,0.00
2013-6-19,79.0,63.2,42.3,59.0,51.1,41.0,100,68,41,29.98,29.82,10,2,0,0.00
2013-6-20,66.0,61.9,56.7,62.0,58.4,52.0,100,88,77,29.95,29.84,12,4,0,0.19
2013-6-21,66.3,59.1,52.3,63.0,58.2,52.0,100,96,84,29.99,29.57,30,5,0,1.08
2013-6-22,59.9,56.1,53.1,60.0,56.2,53.0,100,100,100,29.98,29.83,18,4,0,0.06
2013-6-23,77.7,62.4,54.8,66.0,58.9,55.0,100,90,58,29.84,29.60,12,4,0,0.52
2013-6-24,83.8,71.3,55.3,63.0,57.5,52.0,100,66,36,29.77,29.68,13,4,0,0.00
2013-6-25,86.1,73.2,58.1,69.0,63.0,57.0,100,74,43,29.70,29.61,10,2,0,0.00
2013-6-26,79.2,66.7,61.5,70.0,64.2,60.0,100,92,65,29.66,29.55,10,2,0,0.37
2013-6-27,82.2,70.9,60.9,65.0,59.8,52.0,100,71,39,29.67,29.59,22,6,0,0.01
2013-6-28,74.4,64.8,59.6,64.0,60.8,58.0,99,87,64,29.70,29.55,17,4,0,0.24
2013-6-29,71.3,63.4,51.7,61.0,56.6,51.0,100,81,50,29.91,29.68,10,2,0,0.00
2013-6-30,82.8,65.6,48.6,59.0,51.9,45.0,100,68,29,30.01,29.91,12,2,0,0.00
2013-7-1,72.3,61.8,50.8,54.0,49.3,37.0,99,67,45,30.14,30.01,11,3,0,0.00
2013-7-2,73.0,59.7,43.2,48.0,40.3,27.0,94,55,19,30.11,30.00,10,2,0,0.00
2013-7-3,80.3,64.0,44.6,54.0,47.8,38.0,100,62,30,30.00,29.84,12,2,0,0.00
2013-7-4,83.8,69.3,49.8,62.0,55.4,44.0,92,64,37,29.86,29.73,12,3,0,0.00
2013-7-5,84.5,75.3,64.2,64.0,59.8,57.0,77,60,42,29.74,29.65,14,4,0,0.00
2013-7-6,79.6,72.3,66.8,69.0,64.6,61.0,100,77,62,29.75,29.67,10,3,0,0.33
2013-7-7,68.1,63.3,52.6,66.0,62.1,53.0,100,96,81,29.88,29.72,10,4,0,0.00
2013-7-8,76.3,61.4,52.2,65.0,58.1,52.0,100,90,67,29.95,29.85,8,2,0,0.02
2013-7-9,71.3,61.4,53.5,66.0,59.2,53.0,100,93,78,29.91,29.67,15,3,0,0.25
2013-7-10,76.8,65.2,55.4,57.0,53.7,50.0,94,69,40,29.93,29.77,16,7,0,0.00
2013-7-11,81.1,66.0,49.2,62.0,55.0,49.0,100,72,38,30.01,29.85,11,2,0,0.00
2013-7-12,84.1,73.8,64.2,64.0,60.3,57.0,77,64,47,29.87,29.74,16,6,0,0.00
2013-7-13,74.4,69.0,64.5,68.0,65.4,60.0,98,88,62,29.95,29.77,14,3,0,0.29
2013-7-14,76.0,69.5,66.3,69.0,64.7,61.0,100,85,70,30.09,29.94,12,2,0,0.04
2013-7-15,80.7,69.9,64.0,70.0,66.1,63.0,100,89,67,30.14,30.07,10,2,0,0.08
2013-7-16,90.3,75.9,61.5,75.0,66.8,61.0,100,77,44,30.07,29.99,17,4,0,0.00
2013-7-17,91.4,79.0,68.1,71.0,67.5,65.0,93,70,44,30.07,29.95,17,4,0,0.00
2013-7-18,91.6,79.1,66.4,73.0,69.0,65.0,100,74,47,29.96,29.48,18,4,0,0.02
2013-7-19,79.6,72.2,65.0,70.0,61.4,51.0,100,72,40,29.72,29.47,21,7,0,0.03
2013-7-20,68.9,61.3,52.0,54.0,47.7,43.0,85,62,44,29.91,29.72,13,3,0,0.00
2013-7-21,71.1,58.5,47.7,57.0,49.7,44.0,100,74,54,29.92,29.74,12,4,0,0.00
2013-7-22,80.3,65.1,53.5,70.0,57.3,48.0,100,78,49,29.74,29.50,21,7,0,0.01
2013-7-23,73.0,60.9,51.3,54.0,50.1,48.0,93,70,43,29.93,29.69,10,4,0,0.00
2013-7-24,75.3,61.2,47.3,58.0,52.7,47.0,100,76,47,29.96,29.82,9,2,0,0.00
2013-7-25,79.0,64.3,54.5,64.0,57.8,55.0,100,82,48,29.82,29.74,12,3,0,0.31
2013-7-26,59.0,54.4,48.8,57.0,52.1,44.0,100,92,73,30.01,29.73,16,4,0,0.10
2013-7-27,53.3,49.5,46.7,51.0,47.7,45.0,99,93,83,29.98,29.81,18,6,0,0.28
2013-7-28,66.9,55.7,48.8,55.0,50.1,48.0,98,83,54,29.97,29.84,18,5,0,0.00
2013-7-29,75.3,59.7,43.5,59.0,50.9,44.0,100,77,44,30.01,29.96,7,1,0,0.00
2013-7-30,70.8,62.5,55.0,62.0,59.0,53.0,99,88,72,30.00,29.92,8,2,0,0.02
2013-7-31,75.4,66.0,57.8,65.0,55.9,48.0,100,74,41,29.92,29.82,18,6,0,0.17
2013-8-1,74.7,64.5,56.0,58.0,54.2,51.0,94,71,48,29.86,29.72,15,4,0,0.04
2013-8-2,73.7,61.9,49.9,58.0,51.8,48.0,100,73,42,29.93,29.72,13,4,0,0.01
2013-8-3,72.5,58.8,45.2,54.0,49.6,45.0,100,75,43,30.11,29.93,13,3,0,0.00
2013-8-4,74.0,58.6,42.8,56.0,49.4,43.0,100,75,41,30.14,29.92,6,1,0,0.00
2013-8-5,73.3,60.5,51.6,64.0,58.7,51.0,100,94,71,29.91,29.67,10,1,0,0.64
2013-8-6,74.9,64.4,54.8,63.0,59.0,55.0,100,84,53,29.70,29.61,9,2,0,0.01
2013-8-7,71.6,61.7,50.8,59.0,51.6,47.0,100,73,43,29.91,29.65,17,5,0,0.00
2013-8-8,71.6,59.7,51.1,58.0,53.6,50.0,98,82,51,29.96,29.86,11,2,0,0.01
2013-8-9,66.9,59.0,48.3,54.0,51.3,47.0,100,77,56,29.99,29.86,16,5,0,0.00
2013-8-10,76.1,62.9,53.3,58.0,53.7,50.0,96,75,41,30.07,29.97,8,2,0,0.00
2013-8-11,78.1,62.5,49.9,60.0,54.4,49.0,100,78,45,29.99,29.89,6,2,0,0.00
2013-8-12,73.9,60.3,46.2,57.0,52.6,45.0,100,78,44,30.00,29.88,13,4,0,0.00
2013-8-13,69.8,56.4,43.3,53.0,47.7,43.0,100,77,45,30.11,30.00,10,2,0,0.00
2013-8-14,73.7,56.6,40.5,55.0,47.5,40.0,100,76,40,30.13,29.98,11,1,0,0.00
2013-8-15,79.6,60.7,44.9,58.0,50.9,45.0,100,75,34,30.01,29.96,10,2,0,0.00
2013-8-16,80.5,64.3,46.8,63.0,54.9,47.0,100,75,43,30.05,30.00,7,2,0,0.00
2013-8-17,79.6,66.4,52.5,58.0,54.9,52.0,100,70,41,30.06,29.95,16,4,0,0.00
2013-8-18,80.7,68.8,57.0,58.0,55.6,54.0,90,65,41,30.00,29.83,19,4,0,0.00
2013-8-19,86.3,73.4,63.5,70.0,63.6,57.0,85,72,54,29.84,29.74,13,3,0,0.00
2013-8-20,89.5,76.8,66.4,72.0,68.6,65.0,96,77,50,29.77,29.66,18,4,0,0.00
2013-8-21,84.5,74.5,58.7,73.0,64.8,52.0,97,76,35,29.92,29.64,16,4,0,0.00
2013-8-22,78.6,67.1,52.3,57.0,50.7,45.0,94,60,34,30.05,29.92,10,3,0,0.00
2013-8-23,80.3,62.6,45.1,59.0,49.7,44.0,100,69,30,30.09,29.95,10,2,0,0.00
2013-8-24,84.5,72.4,58.9,70.0,64.3,57.0,96,77,56,29.98,29.74,16,5,0,0.00
2013-8-25,92.7,81.8,74.0,76.0,72.4,70.0,97,75,52,29.81,29.74,16,5,0,0.09
2013-8-26,89.0,76.1,66.6,77.0,71.7,67.0,100,88,53,29.84,29.74,10,2,0,0.18
2013-8-27,83.6,73.1,66.8,73.0,69.1,67.0,100,89,63,29.83,29.68,9,2,0,0.54
2013-8-28,85.3,72.1,60.5,73.0,66.6,61.0,100,85,48,29.92,29.82,9,1,0,0.01
2013-8-29,74.7,67.7,60.7,72.0,66.5,61.0,100,96,81,29.91,29.68,23,2,0,0.56
2013-8-30,78.8,70.0,62.0,69.0,63.0,59.0,100,80,52,29.85,29.71,12,4,0,0.00
2013-8-31,84.1,69.5,60.4,68.0,63.3,60.0,100,83,52,29.81,29.57,10,2,0,0.07
2013-9-1,70.6,62.6,54.5,64.0,57.9,50.0,100,85,72,29.88,29.54,20,9,0,0.01
2013-9-2,65.3,54.5,44.8,53.0,48.0,44.0,95,80,55,30.00,29.88,12,4,0,0.00
2013-9-3,77.6,60.1,41.5,61.0,51.7,41.0,100,77,44,29.97,29.83,15,4,0,0.00
2013-9-4,71.5,61.1,47.9,60.0,54.5,47.0,100,80,53,30.11,29.83,13,3,0,0.00
2013-9-5,73.5,57.0,41.8,56.0,49.8,42.0,100,80,44,30.19,30.02,10,2,0,0.00
2013-9-6,86.1,71.4,52.2,71.0,64.3,51.0,100,80,53,30.01,29.73,12,3,0,0.00
2013-9-7,83.4,68.0,57.5,69.0,63.5,56.0,100,87,57,30.00,29.73,15,3,0,0.00
2013-9-8,63.9,58.4,53.2,58.0,55.4,52.0,100,90,70,30.04,29.83,9,4,0,0.00
2013-9-9,64.8,60.7,57.6,65.0,60.7,58.0,100,100,100,29.82,29.56,13,2,0,0.31
2013-9-10,76.8,66.4,60.7,65.0,63.2,60.0,100,90,61,29.82,29.61,15,5,0,0.03
2013-9-11,75.4,63.7,52.2,62.0,56.3,50.0,100,81,42,29.96,29.81,20,5,0,0.05
2013-9-12,64.5,54.7,41.6,53.0,47.8,40.0,100,80,49,30.17,29.95,17,6,0,0.00
2013-9-13,65.5,50.3,36.0,51.0,43.3,36.0,100,80,50,30.20,29.98,6,1,0,0.00
2013-9-14,68.3,56.1,46.1,55.0,49.4,44.0,100,80,57,29.97,29.81,18,4,0,0.29
2013-9-15,53.8,50.1,36.2,54.0,49.4,36.0,100,97,86,30.26,29.83,17,3,0,0.17
2013-9-16,61.2,46.7,32.9,52.0,41.0,33.0,100,83,53,30.35,30.19,9,2,0,0.01
2013-9-17,67.3,52.9,35.6,52.0,45.4,36.0,100,78,54,30.19,29.85,16,4,0,0.00
2013-9-18,62.4,58.8,55.7,62.0,58.6,53.0,100,99,87,29.85,29.64,9,3,0,0.06
2013-9-19,66.4,63.6,60.5,66.0,63.6,61.0,100,100,100,29.66,29.53,14,3,0,0.20
2013-9-20,60.2,54.7,47.1,60.0,51.0,44.0,100,88,61,29.78,29.59,20,8,0,0.02
2013-9-21,59.9,48.6,38.6,45.0,40.4,38.0,96,75,48,29.91,29.77,16,4,0,0.00
2013-9-22,58.0,46.3,32.7,48.0,41.0,33.0,100,84,59,29.97,29.84,14,5,0,0.00
2013-9-23,64.5,54.8,47.3,53.0,48.5,44.0,95,80,63,29.89,29.82,12,6,0,0.00
2013-9-24,68.8,56.6,47.3,54.0,50.2,46.0,100,81,55,29.90,29.83,11,3,0,0.00
2013-9-25,68.3,52.9,41.8,59.0,49.8,42.0,100,90,58,29.91,29.84,10,3,0,0.00
2013-9-26,66.1,56.7,51.0,56.0,53.0,51.0,100,88,68,29.91,29.81,18,6,0,0.01
2013-9-27,69.3,63.3,56.3,63.0,57.1,52.0,91,80,72,29.86,29.70,16,5,0,0.05
2013-9-28,69.3,59.1,44.6,62.0,53.2,43.0,100,81,66,29.77,29.42,21,8,0,0.48
2013-9-29,70.1,55.9,41.1,48.0,44.5,40.0,100,70,37,29.82,29.65,18,4,0,0.00
2013-9-30,72.0,62.2,54.5,53.0,49.3,46.0,89,64,49,29.65,29.48,19,5,0,0.00
2013-10-1,70.1,61.6,52.6,52.0,42.8,32.0,82,54,25,29.80,29.41,23,8,0,0.00
2013-10-2,73.7,55.7,41.2,52.0,40.9,31.0,97,64,21,29.96,29.81,17,3,0,0.28
2013-10-3,55.1,51.4,49.6,51.0,49.6,49.0,98,93,84,29.95,29.83,13,6,0,0.21
2013-10-4,53.2,50.4,48.8,49.0,46.0,41.0,96,85,71,30.04,29.95,26,11,0,0.01
2013-10-5,48.9,46.6,45.8,47.0,46.2,45.0,100,99,86,29.98,29.69,26,13,0,2.71
2013-10-6,49.9,46.3,41.1,48.0,45.4,40.0,100,96,86,29.70,29.59,13,6,0,0.13
2013-10-7,60.4,46.7,36.5,45.0,39.7,35.0,99,80,43,29.89,29.69,14,4,0,0.01
2013-10-8,70.4,56.2,35.9,47.0,42.5,35.0,99,64,41,29.89,29.66,19,5,0,0.00
2013-10-9,72.8,61.2,51.7,53.0,49.0,45.0,91,65,47,29.94,29.75,15,4,0,0.00
2013-10-10,68.1,56.9,48.0,49.0,47.0,45.0,90,71,49,29.94,29.84,12,4,0,0.00
2013-10-11,67.1,59.7,48.6,55.0,50.8,45.0,88,73,60,29.85,29.51,25,8,0,0.02
2013-10-12,66.0,51.7,45.4,58.0,45.9,42.0,97,81,64,29.97,29.50,23,8,0,0.11
2013-10-13,55.7,44.6,31.8,44.0,35.3,30.0,94,73,39,30.33,29.98,17,5,0,0.00
2013-10-14,49.8,42.0,31.5,42.0,37.6,30.0,100,85,62,30.35,30.06,16,4,0,0.03
2013-10-15,46.4,44.6,41.2,46.0,43.8,39.0,100,97,77,30.05,29.68,21,10,0,1.54
2013-10-16,53.2,41.0,33.1,41.0,29.7,-99.9,99,74,44,29.84,29.76,15,-38,0,0.00
2013-10-17,46.5,40.4,31.5,45.0,39.1,30.0,100,95,87,29.78,29.69,12,3,0,0.23
2013-10-18,47.4,39.8,34.9,38.0,33.5,26.0,97,80,43,29.85,29.71,15,4,0,0.01
2013-10-19,42.3,36.0,30.9,36.0,32.7,28.0,100,88,69,29.70,29.59,10,2,0,0.05
2013-10-20,36.8,14.7,29.8,35.0,-43.1,-99.9,96,40,90,29.70,29.57,4,-572,0,0.15
2013-10-21,33.1,20.8,28.5,31.0,-15.5,-99.9,93,56,73,29.82,29.66,21,-329,0,0.02
2013-10-22,34.4,31.4,27.3,31.0,26.1,21.0,94,81,65,29.94,29.82,13,5,0,0.00
2013-10-23,34.7,30.9,27.3,28.0,24.2,21.0,91,77,59,29.98,29.87,15,7,0,0.00
2013-10-24,40.5,34.2,29.5,30.0,26.8,23.0,85,75,52,30.19,29.98,18,7,0,0.00
2013-10-25,48.5,37.5,25.7,38.0,29.4,23.0,92,74,53,30.18,29.58,20,7,0,0.00
2013-10-26,41.8,38.4,34.1,35.0,30.4,25.0,88,73,58,29.97,29.63,23,8,0,0.00
2013-10-27,47.6,37.0,30.0,31.0,27.4,21.0,79,69,51,30.18,29.70,18,6,0,0.00
2013-10-28,34.3,28.1,20.8,22.0,18.9,15.0,86,69,59,30.47,30.19,12,3,0,0.00
2013-10-29,35.3,28.6,20.2,32.0,24.7,17.0,95,85,62,30.43,30.09,6,0,0,0.00
2013-10-30,42.3,38.0,33.5,42.0,37.5,32.0,100,98,92,30.08,29.60,10,2,0,0.06
2013-10-31,44.6,42.2,39.1,45.0,42.3,39.0,100,100,100,29.60,29.25,12,3,0,0.10
2013-11-1,39.1,37.2,34.7,39.0,35.4,32.0,100,93,86,29.74,29.27,14,5,0,0.00
2013-11-2,42.6,34.8,26.6,34.0,29.3,24.0,96,82,54,30.05,29.74,6,2,0,0.00
2013-11-3,46.0,36.9,24.5,33.0,29.1,22.0,93,74,59,30.09,29.88,23,7,0,0.00
2013-11-4,43.6,40.6,32.5,42.0,34.9,30.0,98,81,66,30.01,29.71,17,6,0,0.26
2013-11-5,36.5,32.4,28.1,30.0,26.0,23.0,90,77,64,30.14,29.99,11,4,0,0.00
2013-11-6,32.2,29.3,25.0,26.0,20.5,17.0,85,70,55,30.08,29.93,20,6,0,0.00
2013-11-7,34.9,26.6,18.8,24.0,17.9,14.0,87,71,45,30.12,30.07,17,4,0,0.00
2013-11-8,34.9,27.4,15.1,32.0,23.0,11.0,96,84,71,30.12,29.54,14,4,0,0.03
2013-11-9,35.0,33.4,32.8,33.0,31.8,30.0,100,94,85,30.01,29.51,21,9,0,0.06
2013-11-10,38.2,33.4,23.2,30.0,26.0,15.0,90,75,55,30.18,30.00,24,8,0,0.01
2013-11-11,23.0,16.9,10.4,16.0,6.2,4.0,75,63,48,30.67,30.07,23,10,0,0.00
2013-11-12,27.0,17.9,8.8,9.0,5.4,1.0,81,61,35,30.68,30.30,17,7,0,0.00
2013-11-13,44.9,31.7,19.2,31.0,21.2,9.0,75,66,50,30.29,29.71,18,8,0,0.00
2013-11-14,45.2,37.2,29.3,33.0,30.6,27.0,92,78,61,29.73,29.62,7,2,0,0.00
2013-11-15,48.2,38.9,30.4,36.0,32.9,28.0,96,80,54,29.74,29.55,11,4,0,0.00
2013-11-16,44.2,41.3,39.3,41.0,38.1,34.0,100,88,78,29.55,29.19,10,4,0,0.01
2013-11-17,42.2,37.2,27.6,42.0,35.9,22.0,100,94,79,29.57,29.16,29,9,0,0.01
2013-11-18,27.6,24.4,15.9,22.0,17.2,12.0,85,74,69,30.21,29.58,26,10,0,0.00
2013-11-19,38.9,26.5,13.8,26.0,18.2,10.0,87,72,53,30.24,29.83,17,7,0,0.00
2013-11-20,42.6,39.8,34.1,31.0,25.0,21.0,86,57,45,29.96,29.79,13,5,0,0.00
2013-11-21,34.4,26.9,18.1,32.0,21.0,11.0,92,78,68,30.47,29.96,19,7,0,0.00
2013-11-22,25.3,15.3,6.3,13.0,7.4,1.0,85,72,38,30.55,30.34,17,7,0,0.00
2013-11-23,12.9,6.5,-1.4,2.0,-2.8,-7.0,81,67,46,30.78,30.56,17,5,0,0.00
2013-11-24,29.8,15.3,-1.8,18.0,4.7,-7.0,79,64,52,30.67,29.73,24,6,0,0.00
2013-11-25,35.0,30.5,20.3,27.0,21.4,6.0,85,69,53,29.95,29.68,25,10,0,0.00
2013-11-26,20.2,12.6,8.1,12.0,2.6,-2.0,82,65,49,30.35,29.94,19,9,0,0.00
2013-11-27,19.4,13.3,2.8,15.0,8.0,-2.0,88,80,61,30.34,30.07,10,3,0,0.01
2013-11-28,20.8,16.0,4.8,14.0,11.4,0.0,87,82,70,30.48,30.06,14,4,0,0.00
2013-11-29,24.2,13.1,-2.4,17.0,7.0,-9.0,87,76,71,30.52,30.10,10,2,0,0.00
2013-11-30,33.1,27.3,23.2,23.0,20.6,18.0,82,76,66,30.12,29.97,11,3,0,0.00
2013-12-1,27.2,25.0,22.7,22.0,20.2,18.0,86,82,77,30.12,29.91,8,2,0,0.00
2013-12-2,30.9,27.1,22.5,31.0,25.1,18.0,100,92,81,29.90,29.66,14,4,0,0.00
2013-12-3,30.6,28.6,24.1,31.0,27.8,23.0,100,97,92,29.86,29.65,23,10,0,0.00
2013-12-4,31.2,27.2,18.8,31.0,26.6,17.0,100,97,92,29.86,29.31,22,9,0,0.00
2013-12-5,18.4,7.2,-3.9,17.0,2.9,-9.0,92,83,78,30.19,29.38,21,12,0,0.00
2013-12-6,2.0,-4.8,-10.3,-4.0,-10.6,-16.0,78,76,72,30.55,30.20,18,8,0,0.00
2013-12-7,-4.1,-11.5,-17.5,-11.0,-18.2,-24.0,74,72,70,30.64,30.55,13,6,0,0.00
2013-12-8,7.9,-4.7,-19.9,4.0,-10.3,-28.0,85,76,67,30.56,30.02,8,1,0,0.00
2013-12-9,4.5,-3.5,-9.8,0.0,-9.3,-16.0,82,76,72,30.02,29.85,21,6,0,0.00
2013-12-10,0.9,-5.8,-13.0,-5.0,-11.9,-19.0,77,75,71,30.22,29.83,16,5,0,0.00
2013-12-11,-3.7,-10.3,-16.9,-11.0,-17.1,-24.0,74,72,70,30.49,30.23,18,7,0,0.00
2013-12-12,6.7,0.8,-7.5,2.0,-4.7,-14.0,81,77,74,30.27,30.15,13,4,0,0.00
2013-12-13,3.5,-0.9,-4.3,-2.0,-6.9,-11.0,78,75,73,30.40,30.20,11,4,0,0.00
2013-12-14,10.5,4.0,-3.1,6.0,-1.0,-9.0,82,80,76,30.37,29.99,20,4,0,0.00
2013-12-15,-3.7,-10.8,-18.1,-10.0,-17.9,-26.0,76,71,68,30.19,30.02,19,7,0,0.00
2013-12-16,9.5,1.1,-10.7,6.0,-4.3,-17.0,86,78,70,30.16,29.78,19,3,0,0.00
2013-12-17,22.2,12.8,-2.2,20.0,8.5,-8.0,92,83,71,30.04,29.73,19,7,0,0.00
2013-12-18,19.5,7.0,-4.1,13.0,1.6,-10.0,86,78,73,30.03,29.63,11,3,0,0.00
2013-12-19,12.9,8.6,2.8,8.0,2.8,-3.0,83,77,71,30.16,29.77,19,6,0,0.00
2013-12-20,21.4,8.3,-1.6,15.0,3.1,-8.0,82,79,74,30.12,29.84,4,1,0,0.00
2013-12-21,18.0,13.3,-1.2,15.0,8.9,-7.0,89,82,76,30.00,29.83,11,2,0,0.00
2013-12-22,16.9,9.3,1.8,14.0,5.1,-3.0,89,83,79,30.21,29.96,12,5,0,0.00
2013-12-23,1.5,-3.3,-11.2,-4.0,-9.7,-18.0,79,74,71,30.50,30.21,14,6,0,0.02
2013-12-24,6.5,-1.3,-15.3,2.0,-7.2,-23.0,82,76,68,30.47,30.09,10,3,0,0.00
2013-12-25,16.2,9.6,0.7,12.0,4.6,-5.0,83,80,73,30.08,29.96,11,4,0,0.01
2013-12-26,12.9,3.4,-6.3,6.0,-3.1,-13.0,79,74,70,30.19,30.04,4,0,0,0.00
2013-12-27,34.4,23.0,-6.5,28.0,19.3,-14.0,97,86,71,30.15,29.71,19,5,0,0.00
2013-12-28,29.7,24.3,6.9,28.0,22.3,2.0,96,91,78,30.04,29.66,15,4,0,0.00
2013-12-29,6.3,-8.9,-17.8,1.0,-18.0,-27.0,78,65,53,30.30,30.04,16,7,0,0.00
2013-12-30,-3.3,-13.5,-23.6,-12.0,-21.5,-32.0,75,67,62,30.29,30.18,9,3,0,0.00
2013-12-31,-9.1,-15.1,-19.3,-17.0,-23.6,-27.0,73,65,55,30.48,30.15,18,5,0,0.00
2014-1-1,-4.3,-13.1,-19.6,-16.0,-22.8,-28.0,67,62,50,30.57,30.46,9,3,0,0.00
2014-1-2,-0.6,-14.5,-22.5,-17.0,-25.0,-32.0,68,60,42,30.53,30.36,9,3,0,0.00